Change the Weather History Date:

Friday, December 6, 2013

  Actual Average Record
Temperature  
Mean Temperature 13 °F -  
Max Temperature 21 °F 34 °F 53 °F (2008)
Min Temperature 5 °F 20 °F -3 °F (1958)
Degree Days  
Heating Degree Days 52    
Moisture  
Dew Point 2 °F    
Average Humidity 65    
Maximum Humidity 76    
Minimum Humidity 50    
Precipitation  
Precipitation 0.00 in - - ()
Sea Level Pressure  
Sea Level Pressure 30.21 in    
Wind  
Wind Speed 9 mph (West)    
Max Wind Speed 15 mph    
Max Gust Speed 22 mph    
Visibility 10 miles    
Events Snow    
Averages and records for this station are not official NWS values.
T = Trace of Precipitation, MM = Missing Value Source: NWS Daily Summary

Daily Weather History Graph

Daily Weather History Graph

Search for Another Location

Airport or City:

Trip Planner

Search our weather history database for the weather conditions in past years. The results will help you decide how hot, cold, wet, or windy it might be!

Date:

Astronomy

Dec. 06, 2013 Rise Set
Actual Time 8:11 AM EST 4:59 PM EST
Civil Twilight 7:37 AM EST 5:33 PM EST
Nautical Twilight 7:00 AM EST 6:11 PM EST
Astronomical Twilight 6:23 AM EST 6:47 PM EST
Moon 11:09 AM EST (12/6) 9:39 PM EST (12/6)
Length of Visible Light 9h 56m
Length of Day
8h 47m
Waxing Crescent, 19% of the Moon is Illuminated
Dec 6
Waxing Crescent
Dec 9
First Quarter
Dec 17
Full
Dec 25
Last Quarter
Jan 1
New

Hourly Weather History & Observations

Time (EST) Temp. Windchill Dew Point Humidity Pressure Visibility Wind Dir Wind Speed Gust Speed Precip Events Conditions
12:14 AM 11.3 °F -2.2 °F 2.1 °F 67% 30.07 in 10.0 mi West 10.4 mph 16.1 mph N/A   Clear
12:35 AM 11.1 °F -0.6 °F 1.9 °F 67% 30.06 in 10.0 mi West 8.1 mph 16.1 mph N/A   Clear
12:55 AM 10.8 °F -2.0 °F 1.4 °F 66% 30.07 in 10.0 mi WSW 9.2 mph - N/A   Clear
1:14 AM 10.4 °F -2.4 °F 1.4 °F 67% 30.07 in 10.0 mi West 9.2 mph - N/A   Clear
1:35 AM 10.0 °F -2.9 °F 1.6 °F 69% 30.08 in 10.0 mi WSW 9.2 mph 16.1 mph N/A   Clear
1:55 AM 9.7 °F -1.3 °F 1.2 °F 69% 30.10 in 10.0 mi West 6.9 mph 17.3 mph N/A   Clear
2:14 AM 9.5 °F -5.2 °F 0.5 °F 67% 30.11 in 10.0 mi WSW 11.5 mph 18.4 mph N/A   Clear
2:35 AM 9.1 °F -4.0 °F 0.3 °F 67% 30.12 in 10.0 mi WSW 9.2 mph - N/A   Clear
2:54 AM 9.1 °F -5.6 °F 0.1 °F 67% 30.12 in 10.0 mi WSW 11.5 mph 17.3 mph N/A   Clear
3:15 AM 8.6 °F -1.3 °F 0.1 °F 68% 30.13 in 10.0 mi WSW 5.8 mph - N/A   Clear
3:35 AM 8.6 °F -4.7 °F 0.3 °F 69% 30.13 in 10.0 mi WSW 9.2 mph - N/A   Clear
3:54 AM 8.2 °F -5.1 °F -0.0 °F 69% 30.13 in 10.0 mi WSW 9.2 mph - N/A   Clear
4:15 AM 7.7 °F -4.8 °F -0.2 °F 70% 30.12 in 10.0 mi West 8.1 mph - N/A   Clear
4:35 AM 7.5 °F -6.0 °F -0.2 °F 71% 30.13 in 10.0 mi West 9.2 mph - N/A   Clear
4:54 AM 7.2 °F -6.4 °F -0.4 °F 71% 30.13 in 10.0 mi West 9.2 mph 16.1 mph N/A   Clear
5:15 AM 7.2 °F -6.4 °F -0.4 °F 71% 30.14 in 10.0 mi West 9.2 mph 16.1 mph N/A   Clear
5:35 AM 6.8 °F -6.9 °F -0.6 °F 72% 30.14 in 10.0 mi West 9.2 mph 17.3 mph N/A   Clear
5:54 AM 6.4 °F -8.2 °F -0.8 °F 72% 30.14 in 10.0 mi West 10.4 mph - N/A   Clear
6:15 AM 5.9 °F -10.5 °F -0.9 °F 73% 30.14 in 10.0 mi West 12.7 mph 16.1 mph N/A   Clear
6:34 AM 5.9 °F -10.5 °F -0.9 °F 73% 30.14 in 10.0 mi West 12.7 mph 20.7 mph N/A   Clear
6:55 AM 5.5 °F -8.4 °F -1.3 °F 73% 30.16 in 10.0 mi West 9.2 mph - N/A   Clear
7:14 AM 5.4 °F -7.6 °F -1.3 °F 74% 30.16 in 10.0 mi West 8.1 mph - N/A   Clear
7:35 AM 5.0 °F -5.6 °F -1.3 °F 75% 30.17 in 10.0 mi West 5.8 mph - N/A   Clear
7:54 AM 5.0 °F -5.6 °F -1.3 °F 75% 30.18 in 10.0 mi West 5.8 mph - N/A   Clear
8:14 AM 5.0 °F -5.6 °F -1.1 °F 76% 30.18 in 10.0 mi West 5.8 mph - N/A   Clear
8:35 AM 5.0 °F -2.1 °F -0.9 °F 76% 30.19 in 10.0 mi West 3.5 mph - N/A   Clear
8:54 AM 5.9 °F -3.0 °F -0.4 °F 75% 30.20 in 10.0 mi West 4.6 mph - N/A   Clear
9:15 AM 6.8 °F -6.9 °F -0.4 °F 72% 30.21 in 10.0 mi West 9.2 mph - N/A   Clear
9:35 AM 7.3 °F -7.9 °F -0.2 °F 71% 30.21 in 10.0 mi West 11.5 mph 17.3 mph N/A   Clear
9:54 AM 8.2 °F -7.5 °F 0.1 °F 70% 30.21 in 10.0 mi West 12.7 mph 18.4 mph N/A   Clear
10:15 AM 9.5 °F -5.2 °F 1.2 °F 69% 30.23 in 10.0 mi West 11.5 mph 18.4 mph N/A   Clear
10:35 AM 10.4 °F -4.8 °F 1.4 °F 67% 30.22 in 10.0 mi West 12.7 mph 20.7 mph N/A   Clear
10:54 AM 11.1 °F -3.2 °F 1.9 °F 67% 30.23 in 10.0 mi West 11.5 mph 21.9 mph N/A   Clear
11:15 AM 12.6 °F -2.7 °F 2.7 °F 65% 30.23 in 10.0 mi West 13.8 mph 21.9 mph N/A Snow Light Snow
11:35 AM 14.0 °F -1.4 °F 3.2 °F 62% 30.22 in 10.0 mi West 15.0 mph 19.6 mph N/A Snow Light Snow
11:54 AM 15.4 °F 1.0 °F 4.1 °F 61% 30.22 in 10.0 mi WNW 13.8 mph 20.7 mph N/A Snow Light Snow
12:15 PM 16.7 °F 4.5 °F 4.6 °F 59% 30.22 in 10.0 mi West 10.4 mph - N/A Snow Light Snow
12:34 PM 17.6 °F 5.7 °F 4.5 °F 56% 30.23 in 10.0 mi West 10.4 mph - N/A Snow Light Snow
12:54 PM 18.5 °F 6.8 °F 4.8 °F 55% 30.23 in 10.0 mi West 10.4 mph 16.1 mph N/A Snow Light Snow
1:15 PM 19.0 °F 6.1 °F 4.5 °F 53% 30.22 in 10.0 mi West 12.7 mph - N/A   Clear
1:34 PM 19.4 °F 8.6 °F 4.6 °F 53% 30.23 in 10.0 mi West 9.2 mph 17.3 mph N/A   Clear
1:55 PM 19.6 °F 10.6 °F 4.3 °F 52% 30.23 in 10.0 mi West 6.9 mph 18.4 mph N/A   Clear
2:15 PM 20.1 °F 12.3 °F 4.5 °F 51% 30.22 in 10.0 mi WNW 5.8 mph - N/A   Clear
2:34 PM 20.3 °F 9.8 °F 4.6 °F 51% 30.22 in 10.0 mi West 9.2 mph - N/A   Clear
2:55 PM 21.0 °F 8.1 °F 4.8 °F 50% 30.22 in 10.0 mi West 13.8 mph - N/A   Clear
3:15 PM 20.3 °F 10.6 °F 4.3 °F 50% 30.21 in 10.0 mi NNW 8.1 mph - N/A   Clear
3:34 PM 20.1 °F 9.5 °F 3.9 °F 50% 30.22 in 10.0 mi West 9.2 mph - N/A   Clear
3:55 PM 19.4 °F 10.4 °F 3.7 °F 51% 30.23 in 10.0 mi West 6.9 mph - N/A   Clear
4:14 PM 19.0 °F 6.8 °F 3.6 °F 51% 30.23 in 10.0 mi West 11.5 mph - N/A   Clear
4:34 PM 17.4 °F 8.0 °F 3.2 °F 54% 30.24 in 10.0 mi West 6.9 mph - N/A   Clear
4:55 PM 16.0 °F 6.3 °F 3.2 °F 57% 30.24 in 10.0 mi West 6.9 mph - N/A   Clear
5:14 PM 15.8 °F 6.1 °F 3.0 °F 57% 30.25 in 10.0 mi West 6.9 mph - N/A   Clear
5:35 PM 15.6 °F 8.3 °F 3.2 °F 58% 30.26 in 10.0 mi WSW 4.6 mph - N/A   Clear
5:55 PM 14.7 °F 7.3 °F 3.2 °F 60% 30.26 in 10.0 mi WSW 4.6 mph - N/A   Clear
6:14 PM 14.0 °F 6.5 °F 3.6 °F 63% 30.27 in 10.0 mi WSW 4.6 mph - N/A   Clear
6:35 PM 14.0 °F 6.5 °F 3.4 °F 63% 30.28 in 10.0 mi WSW 4.6 mph - N/A   Clear
6:55 PM 13.6 °F 6.0 °F 3.4 °F 64% 30.29 in 10.0 mi West 4.6 mph - N/A   Clear
7:14 PM 13.1 °F 4.0 °F 3.4 °F 65% 30.30 in 10.0 mi West 5.8 mph - N/A   Clear
7:35 PM 12.9 °F 1.6 °F 3.0 °F 65% 30.30 in 10.0 mi West 8.1 mph - N/A   Clear
7:54 PM 12.2 °F 0.7 °F 2.7 °F 66% 30.30 in 10.0 mi West 8.1 mph - N/A   Clear
8:14 PM 10.8 °F 0.0 °F 2.3 °F 69% 30.30 in 10.0 mi West 6.9 mph - N/A   Clear
8:35 PM 11.3 °F 0.7 °F 2.8 °F 69% 30.31 in 10.0 mi West 6.9 mph - N/A   Clear
8:54 PM 10.8 °F 0.0 °F 2.3 °F 69% 30.31 in 10.0 mi West 6.9 mph - N/A   Clear
9:15 PM 10.4 °F -0.4 °F 2.1 °F 69% 30.31 in 10.0 mi West 6.9 mph 16.1 mph N/A   Clear
9:35 PM 9.7 °F -3.3 °F 1.6 °F 70% 30.31 in 10.0 mi West 9.2 mph - N/A   Clear
9:54 PM 9.3 °F -0.5 °F 1.4 °F 70% 30.32 in 10.0 mi West 5.8 mph - N/A   Clear
10:15 PM 9.0 °F -0.9 °F 1.0 °F 70% 30.32 in 10.0 mi West 5.8 mph - N/A   Clear
10:34 PM 8.6 °F -1.3 °F 0.9 °F 71% 30.33 in 10.0 mi West 5.8 mph - N/A   Clear
10:54 PM 8.4 °F -1.6 °F 0.5 °F 70% 30.33 in 10.0 mi West 5.8 mph - N/A   Clear
11:15 PM 7.9 °F -3.5 °F 0.5 °F 72% 30.33 in 10.0 mi West 6.9 mph - N/A   Clear
11:34 PM 7.7 °F -3.7 °F 0.5 °F 72% 30.34 in 10.0 mi West 6.9 mph - N/A   Clear
11:55 PM 7.3 °F -2.8 °F 0.1 °F 72% 30.34 in 10.0 mi West 5.8 mph - N/A   Clear